Location: Ferchesar
(52.6477°N, 12.4298°E)
Time: 14:11:57
(UTC+01:00)

deb Explorer IX - Pass Details

Date: 15 December 2021
Orbit: 544 x 1082 km, 38.8° (Epoch: 18 January)

Event Time Altitude Azimuth Distance (km) Brightness Sun altitude
Rises 06:31:36 0° 226° (SW) 3,697 ? -14.5°
Reaches altitude 10° 06:35:13 10° 210° (SSW) 2,656 ? -14.0°
Maximum altitude 06:39:19 18° 169° (S) 2,014 ? -13.4°
Drops below altitude 10° 06:43:06 10° 128° (SE) 2,408 ? -12.9°
Sets 06:46:11 0° 109° (ESE) 3,229 ? -12.4°
